500P/PanSTARRS (2025)

Japanese version
Home page
Updated on August 9, 2025

---------------------------------------------------------------------

* Profile

Designation 500P/2025 B3
Recovery Date January 24 and February 22, 2025
Magnitude 21.3 mag, 20.1 mag
Recoverer T. Kobayashi (Oizumi, Gunma-ken, Japan), Mt. Lemmon, M. Jaeger, G. Rhemann, and E. Prosperi (Martinsberg, Oed, Austria)

* Pictures

* Orbital Elements

                    Epoch = 2025 Mar. 26.0 TT
     T = 2025 Mar. 31.93143 TT        Peri. =  46.68240
     e = 0.3758977                    Node  = 111.53024 2000.0
     q = 2.1317498 AU                 Incl. =   2.30150
       a =  3.4157055 AU   n = 0.15612895   P =   6.31 years

* Magnitudes Graph

        m1 = 16.5 + 5 log d + 10.0 log r

---------------------------------------------------------------------

The orbital elements are printed on CBET 5516.
The magnitudes graphs are made with Comet for Windows.

---------------------------------------------------------------------

Copyright(C) Seiichi Yoshida (comet@aerith.net). All rights reserved.